Location: Cosy Dell
(34.2789°N, 117.4537°W)
Time: 21:14:04
(UTC+00:00)

Cosmos 1452 Rocket - Pass Details

Date: 14 July 2020
Orbit: 768 x 774 km, 74.1° (Epoch: 12 August)

Event Time Altitude Azimuth Distance (km) Brightness Sun altitude
Rises 06:25:32 0° 345° (NNW) 3,245 7.9 -30.1°
Reaches altitude 10° 06:27:55 10° 347° (NNW) 2,314 6.9 -30.3°
Enters shadow 06:31:59 52° 7° (N) 947 4.1 -30.7°
